Regional Weather Roundup
Issued by NWS

Home | Current Version | Previous Version | Graphics & Text | Print | Product List | Glossary On
Versions: 1 2 3 4 5 6 7 8 9 10 11 12 13 14 15 16 17 18 19 20 21 22 23 24 25 26 27 28 29 30 31 32 33 34 35 36 37 38 39 40 41 42 43 44 45 46 47 48 49 50
000
ASUS43 KDMX 261207
RWRIA

WEATHER ROUNDUP FOR IOWA
NATIONAL WEATHER SERVICE DES MOINES IA
700 AM CDT SUN APR 26 2015

NOTE: "FAIR" INDICATES FEW OR NO CLOUDS BELOW 12,000 FEET WITH NO
SIGNIFICANT WEATHER AND/OR OBSTRUCTIONS TO VISIBILITY.

* - THESE STATIONS ARE NOT NWS STATIONS...THUS NOT UNDER NWS
QUALITY CONTROL.  THEY ALSO DO NOT REPORT WEATHER SUCH
AS PRECIPITATION OR FOG.

IAZ001>003-012>014-020>022-031>034-043>046-261300-
   NORTHWEST IOWA

CITY           SKY/WX    TMP DP  RH WIND       PRES   REMARKS
CARROLL *      CLEAR     36  36 100 N7        30.01R FOG     WCI  30
CHEROKEE *     CLEAR     34  34 100 CALM      30.03R FOG
DENISON *      CLEAR     39  39 100 E6        29.99R WCI  35
LE MARS *      CLEAR     37  36  93 NE5       30.05R WCI  34
ORANGE CITY *  CLEAR     37  34  87 NE5       30.03R WCI  34
SHELDON *      CLEAR     34  34 100 CALM      30.03R FOG
SIOUX CITY     PTCLDY    38  33  82 CALM      30.02R
6HR MIN TEMP:  37; 6HR MAX TEMP:  51;

SPENCER        CLEAR     30  28  92 NW5       30.03R FOG     WCI  25
6HR MIN TEMP:  28; 6HR MAX TEMP:  39;

STORM LAKE *   CLEAR     39  37  93 NE7       30.03R FOG     WCI  34
$$

IAZ055>058-069>071-079>083-090>094-261300-
   SOUTHWEST IOWA

CITY           SKY/WX    TMP DP  RH WIND       PRES   REMARKS
ATLANTIC *     CLEAR     37  37 100 CALM      30.00R FOG
AUDUBON *      CLEAR     37  36  93 NE3       30.01R FOG
CLARINDA *     CLOUDY    43  39  87 NE9       29.99R
COUNCIL BLFS * CLEAR     39  39 100 NE7       29.99R WCI  34
CRESTON *      CLEAR     37  37 100 E7        29.99R WCI  32
HARLAN  *      CLEAR     39  39 100 N5        30.03R
LAMONI         CLOUDY    41  37  86 NE7       29.97R
6HR MIN TEMP:  40; 6HR MAX TEMP:  47;

RED OAK *      CLEAR     37  37 100 NE6       29.99R WCI  33
SHENANDOAH *   CLOUDY    43  41  93 NE9       29.98R
$$

IAZ047>049-059>061-072>074-084-261300-
   CENTRAL IOWA

CITY           SKY/WX    TMP DP  RH WIND       PRES   REMARKS
AMES           CLEAR     38  33  82 CALM      30.01R
6HR MIN TEMP:  36; 6HR MAX TEMP:  47;

ANKENY *       CLEAR     37  36  93 N7        30.01R WCI  32
CHARITON *     CLEAR     41  37  87 NE7       29.98R
DES MOINES     PTCLDY    42  36  79 NE7       30.00R
6HR MIN TEMP:  42; 6HR MAX TEMP:  48;

GRINNELL*      CLEAR     39  34  81 NE9       30.00R WCI  33
KNOXVILLE *    CLEAR     41  37  87 NE6       29.98R
MARSHALLTOWN   CLEAR     36  30  79 NE5       30.00R WCI  32
6HR MIN TEMP:  34; 6HR MAX TEMP:  44;

PELLA *        PTCLDY    40  39  97 NE3       30.00R
PERRY *          N/A     40  38  91 NE7       30.01R
$$

IAZ004>006-015-016-023>025-035-036-261300-
   NORTH CENTRAL IOWA

CITY           SKY/WX    TMP DP  RH WIND       PRES   REMARKS
ALGONA *       CLEAR     36  36 100 N7        30.02R FOG     WCI  30
CLARION *      CLEAR     36  36 100 E6        30.02R WCI  31
ESTHERVILLE    CLEAR     32  31  96 N6        30.02R FOG     WCI  26
6HR MIN TEMP:  29; 6HR MAX TEMP:  35;

FORT DODGE *   CLEAR     36  34  93 NE3       30.02R
MASON CITY     CLEAR     32  30  92 NE5       30.03R WCI  27
6HR MIN TEMP:  27; 6HR MAX TEMP:  37;

FOREST CITY *  CLEAR     34  34 100 CALM      30.02R
IOWA FALLS *     N/A     37  34  87 CALM      30.02R
$$

IAZ007>011-017>019-026>030-037>042-050>054-066-261300-
   NORTHEAST IOWA

CITY           SKY/WX    TMP DP  RH WIND       PRES   REMARKS
CEDAR RAPIDS   CLEAR     38  28  67 NE8       29.98R WCI  32
6HR MIN TEMP:  36; 6HR MAX TEMP:  45;

CHARLES CITY * CLEAR     36  25  64 NE8       30.03R WCI  29
CLINTON *      CLEAR     34  27  75 N3        30.01R
DECORAH *      CLEAR     34  21  60 CALM      30.02R
DUBUQUE        CLEAR     35  22  58 NE13      30.00R WCI  26
6HR MIN TEMP:  33; 6HR MAX TEMP:  40;

MONTICELLO *   CLEAR     32  28  86 CALM      30.00R
OELWEIN *      CLEAR     34  25  69 NE7       30.02R WCI  28
WATERLOO       CLEAR     36  24  62 CALM      30.01R
6HR MIN TEMP:  31; 6HR MAX TEMP:  41;

$$

IAZ064-065-067-068-078-261300-
   EAST CENTRAL IOWA

CITY           SKY/WX    TMP DP  RH WIND       PRES   REMARKS
DAVENPORT      CLEAR     35  26  69 N8        29.98R WCI  29
6HR MIN TEMP:  34; 6HR MAX TEMP:  41;

IOWA CITY      CLEAR     39  29  67 N7        30.00R WCI  34
6HR MIN TEMP:  38; 6HR MAX TEMP:  45;

MT. PLEASANT * PTCLDY    38  35  87 N7        29.98R WCI  33
MUSCATINE *    CLEAR     37  30  75 NE8       29.99R WCI  31
QUAD CITIES    CLEAR     39  28  64 CALM      29.97R
6HR MIN TEMP:  35; 6HR MAX TEMP:  44;

$$

IAZ062-063-075>077-085>089-095>099-261300-
   SOUTHEAST IOWA

CITY           SKY/WX    TMP DP  RH WIND       PRES   REMARKS
BURLINGTON     CLEAR     41  32  70 NE10      29.96R
6HR MIN TEMP:  39; 6HR MAX TEMP:  45;

FAIRFIELD *    CLEAR     37  34  87 N8        29.98R WCI  31
FORT MADISON * CLEAR     39  34  81 CALM      29.97R
KEOKUK *       CLOUDY    43  34  70 N5        29.96R
OSKALOOSA *      N/A     38  35  89 NE7       29.99R WCI  33
CENTERVILLE *  CLEAR     39  37  93 NE7       29.98R WCI  34
OTTUMWA        PTCLDY    39  36  89 N7        29.98R WCI  34
6HR MIN TEMP:  38; 6HR MAX TEMP:  44;

WASHINGTON *   CLEAR     37  37 100 N8        29.98R WCI  31
$$

ABBREVIATIONS USED IN REMARKS
   TC - TEMPERATURES IN CELSIUS
  WCI - WIND CHILL INDEX
   HX - HEAT INDEX
  VSB - VISIBILITY
$$



USA.gov is the U.S. government's official web portal to all federal, state and local government web resources and services.